This is the latest recevied weather packets stored in our database for station/object VK3MAK-1. If no packets are shown the sender has not sent any weather packets the latest 10 day(s).
| Time | Temp. | Humidity | Pressure | Rain* | Wind** | Luminosity | Snow |
|---|---|---|---|---|---|---|---|
| 1778037003 | 14.44° C | 10% | - | 0 mm | 6.71 m/s, 293° | - | - |
| 1778036403 | 16.11° C | 82% | 1017.2 hPa | 0 mm | 7.15 m/s, 315° | - | - |
| 1778035803 | 16.11° C | 82% | 1017.2 hPa | 0 mm | 7.15 m/s, 315° | - | - |
| 1778035204 | 16.11° C | 82% | 1017.2 hPa | 0 mm | 7.15 m/s, 315° | - | - |
| 1778034604 | 16.11° C | 80% | 1017.8 hPa | 0 mm | 7.6 m/s, 315° | - | - |
| 1778034004 | 16.11° C | 80% | 1017.8 hPa | 0 mm | 7.6 m/s, 315° | - | - |
| 1778033404 | 16.11° C | 80% | 1017.8 hPa | 0 mm | 7.6 m/s, 315° | - | - |
| 1778032804 | 15.56° C | 85% | 1018.3 hPa | 0 mm | 7.15 m/s, 315° | - | - |
| 1778032203 | 15.56° C | 85% | 1018.3 hPa | 0 mm | 7.15 m/s, 315° | - | - |
| 1778031604 | 15.56° C | 85% | 1018.3 hPa | 0 mm | 7.15 m/s, 315° | - | - |
| 1778031003 | 15.56° C | 87% | 1018.7 hPa | 0 mm | 6.26 m/s, 315° | - | - |
| 1778030413 | 15.56° C | 87% | 1018.7 hPa | 0 mm | 6.26 m/s, 315° | - | - |
| 1778029813 | 15.56° C | 87% | 1018.7 hPa | 0 mm | 6.26 m/s, 315° | - | - |
| 1778029213 | 13.89° C | 93% | 1019.3 hPa | 0 mm | 7.15 m/s, 315° | - | - |
| 1778028613 | 13.89° C | 93% | 1019.3 hPa | 0 mm | 7.15 m/s, 315° | - | - |
| 1778028013 | 13.89° C | 93% | 1019.3 hPa | 0 mm | 7.15 m/s, 315° | - | - |
| 1778027414 | 14.44° C | 88% | 1019.3 hPa | 0 mm | 7.15 m/s, 315° | - | - |
| 1778026814 | 14.44° C | 88% | 1019.3 hPa | 0 mm | 7.15 m/s, 315° | - | - |
| 1778026215 | 14.44° C | 88% | 1019.3 hPa | 0 mm | 7.15 m/s, 315° | - | - |
| 1778025614 | 13.89° C | 92% | 1019.7 hPa | 0 mm | 6.71 m/s, 315° | - | - |
| 1778025004 | 13.89° C | 92% | 1019.7 hPa | 0 mm | 6.71 m/s, 315° | - | - |
| 1778024404 | 13.89° C | 92% | 1019.7 hPa | 0 mm | 6.71 m/s, 315° | - | - |
| 1778023804 | 13.89° C | 96% | 1019.8 hPa | 0 mm | 4.92 m/s, 338° | - | - |
| 1778023204 | 13.89° C | 96% | 1019.8 hPa | 0 mm | 4.92 m/s, 338° | - | - |
| 1778022604 | 13.89° C | 96% | 1019.8 hPa | 0 mm | 4.92 m/s, 338° | - | - |
* Rain latest hour (hover to see other rain measurements)
** Current wind speed in m/s (hover to see current wind gust speed)